• In Belgium
  • List of Countries
  • For 7 days
  • Water Temperature
  • Satellite Maps
  • Weather Map
  • Weather Widgets
  • user-avatar
    Login

    Hourly Weather Abanto

    Today, 18 July, Wednesday

    Time Temperature Precipitation Wind Pressure Humidity
    00:00 +21°C° 0 mm 2 mps 682 mmHg 56%
    01:00 +21°C° 0 mm 2 mps 682 mmHg 58%
    02:00 +20°C° 0 mm 2 mps 682 mmHg 59%
    03:00 +20°C° 0 mm 2 mps 682 mmHg 61%
    04:00 +20°C° 0 mm 3 mps 682 mmHg 60%
    05:00 +20°C° 0 mm 3 mps 682 mmHg 58%
    06:00 +20°C° 0 mm 2 mps 682 mmHg 55%
    07:00 +24°C° 0 mm 3 mps 682 mmHg 47%
    08:00 +26°C° 0 mm 4 mps 683 mmHg 38%
    09:00 +28°C° 0 mm 5 mps 683 mmHg 30%
    10:00 +29°C° 0 mm 6 mps 683 mmHg 27%
    11:00 +32°C° 0 mm 6 mps 683 mmHg 24%
    12:00 +33°C° 0 mm 6 mps 684 mmHg 21%
    13:00 +33°C° 0 mm 6 mps 683 mmHg 20%
    14:00 +33°C° 0 mm 6 mps 683 mmHg 19%
    15:00 +34°C° 0 mm 6 mps 683 mmHg 17%
    16:00 +33°C° 0 mm 6 mps 683 mmHg 18%
    17:00 +33°C° 0 mm 5 mps 683 mmHg 19%
    18:00 +32°C° 0 mm 5 mps 683 mmHg 19%
    19:00 +29°C° 0 mm 4 mps 683 mmHg 24%
    20:00 +27°C° 0 mm 3 mps 682 mmHg 28%
    21:00 +25°C° 0 mm 2 mps 682 mmHg 32%
    22:00 +24°C° 0 mm 1 mps 682 mmHg 36%
    23:00 +23°C° 0 mm 1 mps 682 mmHg 39%

    Tomorrow, 19 July, Thursday

    Time Temperature Precipitation Wind Pressure Humidity
    00:00 +22°C° 0 mm 1 mps 682 mmHg 43%
    01:00 +22°C° 0 mm 1 mps 682 mmHg 45%
    02:00 +21°C° 0 mm 1 mps 682 mmHg 48%
    03:00 +21°C° 0 mm 1 mps 682 mmHg 50%
    04:00 +21°C° 0 mm 1 mps 682 mmHg 51%
    05:00 +21°C° 0 mm 1 mps 682 mmHg 52%
    06:00 +22°C° 0 mm 1 mps 682 mmHg 54%
    07:00 +24°C° 0 mm 1 mps 683 mmHg 46%
    08:00 +26°C° 0 mm 2 mps 683 mmHg 38%
    09:00 +28°C° 0 mm 2 mps 684 mmHg 31%
    10:00 +29°C° 0 mm 3 mps 684 mmHg 27%
    11:00 +31°C° 0 mm 3 mps 684 mmHg 23%
    12:00 +33°C° 0 mm 4 mps 684 mmHg 18%
    13:00 +33°C° 0 mm 5 mps 683 mmHg 17%
    14:00 +34°C° 0 mm 5 mps 683 mmHg 15%
    15:00 +35°C° 0 mm 6 mps 683 mmHg 14%
    16:00 +34°C° 0 mm 6 mps 683 mmHg 14%
    17:00 +33°C° 0 mm 6 mps 682 mmHg 14%
    18:00 +33°C° 0 mm 6 mps 682 mmHg 15%
    19:00 +29°C° 0 mm 5 mps 682 mmHg 22%
    20:00 +27°C° 0 mm 4 mps 682 mmHg 30%
    21:00 +24°C° 0 mm 2 mps 682 mmHg 37%
    22:00 +23°C° 0 mm 2 mps 682 mmHg 44%
    23:00 +21°C° 0 mm 2 mps 682 mmHg 51%

    Day after tomorrow, 20 July, Friday

    Time Temperature Precipitation Wind Pressure Humidity
    00:00 +20°C° 0 mm 2 mps 682 mmHg 57%
    01:00 +19°C° 0 mm 2 mps 682 mmHg 62%
    02:00 +19°C° 0 mm 2 mps 681 mmHg 66%
    03:00 +18°C° 0 mm 2 mps 681 mmHg 70%
    04:00 +18°C° 0 mm 2 mps 681 mmHg 70%
    05:00 +18°C° 0 mm 2 mps 681 mmHg 69%
    06:00 +18°C° 0 mm 2 mps 681 mmHg 69%
    07:00 +20°C° 0 mm 2 mps 682 mmHg 60%
    08:00 +23°C° 0 mm 2 mps 682 mmHg 51%
    09:00 +25°C° 0 mm 3 mps 682 mmHg 42%
    10:00 +26°C° 0 mm 3 mps 682 mmHg 37%
    11:00 +27°C° 0 mm 4 mps 682 mmHg 33%
    12:00 +29°C° 0 mm 4 mps 682 mmHg 28%
    13:00 +29°C° 0 mm 5 mps 682 mmHg 28%
    14:00 +29°C° 0 mm 5 mps 682 mmHg 29%
    15:00 +30°C° 0 mm 6 mps 682 mmHg 29%
    16:00 +28°C° 0 mm 6 mps 681 mmHg 35%
    17:00 +27°C° 0 mm 6 mps 681 mmHg 41%
    18:00 +26°C° 0 mm 7 mps 681 mmHg 47%
    19:00 +22°C° 0.2 mm 6 mps 681 mmHg 55%
    20:00 +20°C° 0.2 mm 6 mps 681 mmHg 63%
    21:00 +17°C° 0.2 mm 6 mps 682 mmHg 71%
    22:00 +17°C° 0 mm 5 mps 682 mmHg 73%
    23:00 +17°C° 0 mm 4 mps 682 mmHg 75%

    21 July, Saturday

    Time Temperature Precipitation Wind Pressure Humidity
    00:00 +15°C° 0 mm 4 mps 682 mmHg 77%
    01:00 +16°C° 0 mm 3 mps 681 mmHg 78%
    02:00 +16°C° 0 mm 3 mps 681 mmHg 79%
    03:00 +14°C° 0 mm 3 mps 681 mmHg 79%
    04:00 +14°C° 0 mm 3 mps 681 mmHg 78%
    05:00 +15°C° 0 mm 2 mps 681 mmHg 77%
    06:00 +15°C° 0 mm 2 mps 681 mmHg 76%
    07:00 +17°C° 0 mm 3 mps 682 mmHg 68%
    08:00 +18°C° 0 mm 3 mps 682 mmHg 60%
    09:00 +20°C° 0 mm 4 mps 683 mmHg 53%
    10:00 +21°C° 0 mm 4 mps 683 mmHg 48%
    11:00 +24°C° 0 mm 3 mps 683 mmHg 44%
    12:00 +25°C° 0 mm 3 mps 683 mmHg 39%
    13:00 +26°C° 0 mm 4 mps 683 mmHg 37%
    14:00 +26°C° 0 mm 4 mps 683 mmHg 35%
    15:00 +27°C° 0 mm 4 mps 683 mmHg 33%
    16:00 +26°C° 0.1 mm 5 mps 682 mmHg 37%
    17:00 +25°C° 0.1 mm 5 mps 682 mmHg 40%
    18:00 +23°C° 0.1 mm 6 mps 682 mmHg 44%
    19:00 +21°C° 0.1 mm 5 mps 682 mmHg 52%
    20:00 +20°C° 0.1 mm 5 mps 683 mmHg 60%
    21:00 +18°C° 0.1 mm 4 mps 683 mmHg 68%
    22:00 +17°C° 0 mm 3 mps 683 mmHg 70%
    23:00 +17°C° 0 mm 3 mps 683 mmHg 72%

    22 July, Sunday

    Time Temperature Precipitation Wind Pressure Humidity
    00:00 +16°C° 0 mm 2 mps 683 mmHg 74%
    01:00 +16°C° 0 mm 2 mps 682 mmHg 75%
    02:00 +15°C° 0 mm 2 mps 682 mmHg 76%
    03:00 +15°C° 0 mm 2 mps 682 mmHg 77%
    04:00 +15°C° 0 mm 2 mps 682 mmHg 73%
    05:00 +15°C° 0 mm 2 mps 682 mmHg 70%
    06:00 +15°C° 0 mm 2 mps 682 mmHg 67%
    07:00 +17°C° 0 mm 2 mps 683 mmHg 58%
    08:00 +19°C° 0 mm 2 mps 683 mmHg 49%
    09:00 +21°C° 0 mm 3 mps 684 mmHg 40%
    10:00 +24°C° 0 mm 3 mps 684 mmHg 36%
    11:00 +25°C° 0 mm 3 mps 684 mmHg 32%
    12:00 +27°C° 0 mm 3 mps 684 mmHg 28%
    13:00 +28°C° 0 mm 3 mps 684 mmHg 26%
    14:00 +28°C° 0 mm 4 mps 684 mmHg 25%
    15:00 +29°C° 0 mm 4 mps 683 mmHg 24%
    16:00 +29°C° 0 mm 4 mps 683 mmHg 26%
    17:00 +28°C° 0 mm 4 mps 683 mmHg 28%
    18:00 +28°C° 0 mm 4 mps 683 mmHg 30%
    19:00 +26°C° 0 mm 4 mps 683 mmHg 38%
    20:00 +24°C° 0 mm 3 mps 683 mmHg 46%
    21:00 +21°C° 0 mm 3 mps 683 mmHg 54%
    22:00 +20°C° 0 mm 2 mps 683 mmHg 58%
    23:00 +19°C° 0 mm 2 mps 683 mmHg 62%

    23 July, Monday

    Time Temperature Precipitation Wind Pressure Humidity
    00:00 +19°C° 0 mm 2 mps 683 mmHg 66%
    01:00 +19°C° 0 mm 1 mps 682 mmHg 69%
    02:00 +19°C° 0 mm 1 mps 682 mmHg 71%
    03:00 +18°C° 0 mm 1 mps 682 mmHg 73%
    04:00 +19°C° 0 mm 1 mps 682 mmHg 72%
    05:00 +19°C° 0 mm 1 mps 682 mmHg 71%
    06:00 +20°C° 0 mm 1 mps 682 mmHg 70%
    07:00 +22°C° 0 mm 1 mps 682 mmHg 62%
    08:00 +24°C° 0 mm 1 mps 683 mmHg 53%
    09:00 +26°C° 0 mm 1 mps 683 mmHg 45%
    10:00 +28°C° 0 mm 2 mps 683 mmHg 39%
    11:00 +29°C° 0 mm 2 mps 683 mmHg 33%
    12:00 +31°C° 0 mm 2 mps 683 mmHg 28%
    13:00 +33°C° 0 mm 3 mps 683 mmHg 26%
    14:00 +34°C° 0 mm 3 mps 682 mmHg 24%
    15:00 +34°C° 0 mm 4 mps 682 mmHg 22%
    16:00 +34°C° 0 mm 4 mps 682 mmHg 24%
    17:00 +33°C° 0 mm 4 mps 682 mmHg 26%
    18:00 +33°C° 0 mm 5 mps 681 mmHg 28%
    19:00 +30°C° 0 mm 4 mps 682 mmHg 33%
    20:00 +28°C° 0 mm 4 mps 682 mmHg 37%
    21:00 +26°C° 0 mm 3 mps 682 mmHg 42%
    22:00 +25°C° 0 mm 3 mps 681 mmHg 46%
    23:00 +24°C° 0 mm 3 mps 681 mmHg 50%
    Show more